Regional Weather Roundup
Issued by NWS

Home | Current Version | Previous Version | Graphics & Text | Print | Product List | Glossary On
Versions: 1 2 3 4 5 6 7 8 9 10 11 12 13 14 15 16 17 18 19 20 21 22 23 24 25 26 27 28 29 30 31 32 33 34 35 36 37 38 39 40 41 42 43 44 45 46 47 48 49 50
000
ASUS43 KFSD 300602
RWRSD

WEATHER ROUNDUP FOR SOUTH DAKOTA
NATIONAL WEATHER SERVICE SIOUX FALLS SD
100 AM CDT SAT MAY 30 2015

NOTE: "FAIR" INDICATES FEW OR NO CLOUDS BELOW 12,000 FEET WITH NO
SIGNIFICANT WEATHER AND/OR OBSTRUCTIONS TO VISIBILITY.


SDZ001>005-009-010-012>017-300700-
NORTHWEST AND NORTH CENTRAL SOUTH DAKOTA

CITY           SKY/WX    TMP DP  RH WIND       PRES   REMARKS
BUFFALO          N/A     42  35  76 E12       30.22S
FAITH            N/A     42  34  73 NE3       30.30R
MOBRIDGE       CLEAR     41  38  89 NE7       30.26S
$$

SDZ012>016-024>037-041>051-057-063-072>074-300700-
SOUTHWEST AND SOUTH CENTRAL SOUTH DAKOTA

CITY           SKY/WX    TMP DP  RH WIND       PRES   REMARKS
RAPID CTY ARPT CLEAR     38  36  92 CALM      30.30S
PIERRE         PTCLDY    42  38  85 N7        30.27R
CUSTER         MOCLDY    40  36  86 E3        30.29F
ELLSWORTH AFB  CLEAR     44  38  79 S3        30.29S
PHILIP         CLEAR     41  36  82 N8        30.30R
PINE RIDGE     CLEAR     37  34  89 E3        30.30R
WINNER         FAIR      41  36  82 NW8       30.26S
$$

SDZ004>011-016>023-039-040-300700-
NORTHEAST SOUTH DAKOTA

CITY           SKY/WX    TMP DP  RH WIND       PRES   REMARKS
ABERDEEN       MOCLDY    46  37  71 N12       30.27R
WATERTOWN      PTCLDY    43  36  76 N14       30.20R
BROOKINGS      PTCLDY    45  39  81 N15       30.19R
SISSETON         N/A     45  37  73 N18       30.24R
$$

SDZ017-020-022-023-036>040-048>070-300700-
SOUTHEAST SOUTH DAKOTA

CITY           SKY/WX    TMP DP  RH WIND       PRES   REMARKS
SIOUX FALLS    PTCLDY    48  43  82 N12       30.15R
HURON          PTCLDY    43  39  86 N9        30.23R
CHAMBERLAIN    PTCLDY    47  42  84 N9        30.25S
MITCHELL       MOCLDY    47  42  83 N9        30.22R
YANKTON        MOCLDY    50  41  71 N13G18    30.18R
$$

ABBREVIATIONS USED IN REMARKS
   TC - TEMPERATURE IN CELSIUS
  WCI - WIND CHILL INDEX
   HX - HEAT INDEX
  VSB - VISIBILITY




USA.gov is the U.S. government's official web portal to all federal, state and local government web resources and services.